| time (UTC) | temp C | wind direction | speed KPH | gust KPH | rain 1hr cm | rain 24hr cm | rain mn cm | humidity % | barometer mb |
| 20260904043017 | 15 | 0.0 | 3.2 | 0.10 | 0.23 | 0.23 | 93 | 1011.9 | |
| 20260904041517 | 15 | 0.0 | 1.6 | 0.18 | 0.18 | 0.18 | 93 | 1012.0 | |
| 20260904040017 | 15 | 0.0 | 1.6 | 0.18 | 0.18 | 0.18 | 93 | 1011.7 | |
| 20260904034517 | 15 | 0.0 | 1.6 | 0.15 | 0.15 | 0.15 | 93 | 1011.8 | |
| 20260904033017 | 15 | 0.0 | 0.0 | 0.13 | 0.13 | 0.13 | 92 | 1011.8 | |
| 20260904031517 | 15 | 0.0 | 4.8 | 0.00 | 0.00 | 0.00 | 92 | 1011.7 | |
| 20260904030017 | 15 | 0.0 | 0.0 | 0.00 | 0.00 | 0.00 | 91 | 1011.5 | |
| 20260904024517 | 15 | 0.0 | 0.0 | 0.00 | 0.00 | 0.00 | 90 | 1011.7 | |
| 20260904023017 | 15 | 0.0 | 1.6 | 0.00 | 0.00 | 0.00 | 89 | 1011.9 | |
| 20260904021537 | 16 | 0.0 | 3.2 | 0.00 | 0.00 | 0.00 | 88 | 1011.9 | |
| 20260904020017 | 16 | 0.0 | 1.6 | 0.00 | 0.00 | 0.00 | 86 | 1011.9 | |
| 20260904014517 | 16 | 0.0 | 1.6 | 0.00 | 0.00 | 0.00 | 84 | 1012.1 | |
| 20260904013017 | 16 | 0.0 | 0.0 | 0.00 | 0.00 | 0.00 | 82 | 1012.2 | |
| 20260904011517 | 16 | 0.0 | 3.2 | 0.00 | 0.00 | 0.00 | 82 | 1012.3 | |
| 20260904010017 | 17 | 0.0 | 4.8 | 0.00 | 0.00 | 0.00 | 81 | 1012.4 | |
| 20260904004517 | 16 | 0.0 | 1.6 | 0.00 | 0.00 | 0.00 | 81 | 1012.5 | |
| 20260904003037 | 16 | 0.0 | 1.6 | 0.00 | 0.00 | 0.00 | 80 | 1012.6 | |
| 20260904001517 | 16 | 0.0 | 4.8 | 0.00 | 0.00 | 0.00 | 81 | 1012.7 | |
| 20260904000017 | 16 | 0.0 | 3.2 | 0.00 | 0.00 | 0.00 | 80 | 1012.7 | |
| 20260903234517 | 17 | 0.0 | 4.8 | 0.00 | 0.00 | 0.00 | 79 | 1012.8 | |
| 20260903233017 | 17 | 0.0 | 6.4 | 0.00 | 0.00 | 0.00 | 79 | 1012.8 | |
| 20260903231517 | 16 | 0.0 | 4.8 | 0.00 | 0.00 | 0.00 | 79 | 1012.8 | |
| 20260903230017 | 16 | 113 | 1.6 | 8.0 | 0.00 | 0.00 | 0.00 | 79 | 1013.0 |
| 20260903224517 | 17 | 113 | 1.6 | 6.4 | 0.00 | 0.00 | 0.00 | 79 | 1013.2 |
| 20260903223017 | 17 | 0.0 | 1.6 | 0.00 | 0.00 | 0.00 | 78 | 1013.3 | |
| 20260903221517 | 17 | 0.0 | 4.8 | 0.00 | 0.00 | 0.00 | 78 | 1013.6 | |
| 20260903220017 | 17 | 0.0 | 3.2 | 0.00 | 0.00 | 0.00 | 77 | 1013.8 | |
| 20260903214516 | 17 | 0.0 | 6.4 | 0.00 | 0.00 | 0.00 | 75 | 1013.9 | |
| 20260903213017 | 17 | 0.0 | 6.4 | 0.00 | 0.00 | 0.00 | 75 | 1013.9 | |
| 20260903211517 | 17 | 0.0 | 1.6 | 0.00 | 0.00 | 0.00 | 74 | 1014.0 | |
| 20260903210017 | 17 | 0.0 | 3.2 | 0.00 | 0.00 | 0.00 | 73 | 1014.0 | |
| 20260903204516 | 17 | 0.0 | 1.6 | 0.00 | 0.00 | 0.00 | 74 | 1014.1 | |
| 20260903203016 | 17 | 0.0 | 1.6 | 0.00 | 0.00 | 0.00 | 72 | 1014.0 | |
| 20260903201517 | 17 | 180 | 1.6 | 8.0 | 0.00 | 0.00 | 0.00 | 71 | 1014.1 |
| 20260903200056 | 17 | 135 | 1.6 | 6.4 | 0.00 | 0.00 | 0.00 | 69 | 1014.3 |
| 20260903194517 | 17 | 0.0 | 6.4 | 0.00 | 0.00 | 0.00 | 67 | 1014.4 | |
| 20260903193016 | 17 | 0.0 | 3.2 | 0.00 | 0.00 | 0.00 | 67 | 1014.5 | |
| 20260903191516 | 17 | 0.0 | 3.2 | 0.00 | 0.00 | 0.00 | 68 | 1014.5 | |
| 20260903190016 | 17 | 158 | 1.6 | 6.4 | 0.00 | 0.00 | 0.00 | 66 | 1014.9 |
| 20260903184516 | 17 | 158 | 1.6 | 9.7 | 0.00 | 0.00 | 0.00 | 66 | 1014.9 |
| 20260903183017 | 17 | 135 | 1.6 | 8.0 | 0.00 | 0.00 | 0.00 | 67 | 1015.0 |
| 20260903181537 | 17 | 113 | 1.6 | 8.0 | 0.00 | 0.00 | 0.00 | 68 | 1014.9 |
| 20260903180017 | 17 | 135 | 1.6 | 8.0 | 0.00 | 0.00 | 0.00 | 67 | 1015.1 |
| 20260903174516 | 17 | 113 | 1.6 | 9.7 | 0.00 | 0.00 | 0.00 | 67 | 1015.1 |
| 20260903173016 | 16 | 113 | 1.6 | 6.4 | 0.00 | 0.00 | 0.00 | 66 | 1014.9 |
| 20260903171517 | 16 | 158 | 1.6 | 6.4 | 0.00 | 0.00 | 0.00 | 65 | 1014.9 |
| 20260903170037 | 16 | 135 | 1.6 | 8.0 | 0.00 | 0.00 | 0.00 | 64 | 1015.0 |
| 20260903164516 | 16 | 113 | 1.6 | 8.0 | 0.00 | 0.00 | 0.00 | 65 | 1015.0 |
| 20260903163017 | 15 | 113 | 3.2 | 8.0 | 0.00 | 0.00 | 0.00 | 66 | 1015.0 |
| 20260903161516 | 15 | 113 | 1.6 | 4.8 | 0.00 | 0.00 | 0.00 | 67 | 1015.2 |
| 20260903160036 | 15 | 135 | 1.6 | 6.4 | 0.00 | 0.00 | 0.00 | 68 | 1015.1 |
| 20260903154517 | 15 | 113 | 1.6 | 6.4 | 0.00 | 0.00 | 0.00 | 70 | 1015.3 |
| 20260903153016 | 15 | 113 | 1.6 | 4.8 | 0.00 | 0.00 | 0.00 | 70 | 1015.4 |
| 20260903151516 | 15 | 113 | 1.6 | 8.0 | 0.00 | 0.00 | 0.00 | 70 | 1015.1 |
| 20260903150016 | 15 | 113 | 1.6 | 6.4 | 0.00 | 0.00 | 0.00 | 69 | 1015.2 |
| 20260903144516 | 14 | 113 | 1.6 | 4.8 | 0.00 | 0.00 | 0.00 | 68 | 1015.1 |
| 20260903143016 | 14 | 0.0 | 4.8 | 0.00 | 0.00 | 0.00 | 69 | 1015.2 | |
| 20260903141516 | 14 | 113 | 1.6 | 3.2 | 0.00 | 0.00 | 0.00 | 70 | 1015.0 |
| 20260903140016 | 14 | 0.0 | 3.2 | 0.00 | 0.00 | 0.00 | 68 | 1015.0 | |
| 20260903134516 | 14 | 0.0 | 0.0 | 0.00 | 0.00 | 0.00 | 67 | 1014.9 | |
| 20260903133016 | 14 | 0.0 | 1.6 | 0.00 | 0.00 | 0.00 | 67 | 1015.0 | |
| 20260903131516 | 14 | 90 | 1.6 | 4.8 | 0.00 | 0.00 | 0.00 | 67 | 1015.0 |
| 20260903130017 | 14 | 90 | 1.6 | 3.2 | 0.00 | 0.00 | 0.00 | 67 | 1015.1 |
| 20260903124516 | 14 | 113 | 1.6 | 3.2 | 0.00 | 0.00 | 0.00 | 68 | 1015.1 |
| 20260903123016 | 14 | 0.0 | 3.2 | 0.00 | 0.00 | 0.00 | 69 | 1015.2 | |
| 20260903121516 | 14 | 90 | 1.6 | 4.8 | 0.00 | 0.00 | 0.00 | 69 | 1015.4 |
| 20260903120016 | 14 | 90 | 1.6 | 6.4 | 0.00 | 0.00 | 0.00 | 69 | 1015.6 |
| 20260903114516 | 14 | 90 | 1.6 | 6.4 | 0.00 | 0.00 | 0.00 | 68 | 1015.6 |
| 20260903113016 | 14 | 0.0 | 8.0 | 0.00 | 0.00 | 0.00 | 69 | 1015.7 | |
| 20260903111516 | 14 | 113 | 1.6 | 6.4 | 0.00 | 0.00 | 0.00 | 71 | 1015.8 |
| 20260903110016 | 14 | 0.0 | 3.2 | 0.00 | 0.00 | 0.00 | 72 | 1016.1 | |
| 20260903104516 | 14 | 0.0 | 4.8 | 0.00 | 0.00 | 0.00 | 74 | 1016.1 | |
| 20260903103016 | 14 | 0.0 | 4.8 | 0.00 | 0.00 | 0.00 | 74 | 1015.8 | |
| 20260903101556 | 14 | 0.0 | 4.8 | 0.00 | 0.00 | 0.00 | 74 | 1016.0 | |
| 20260903100016 | 14 | 113 | 1.6 | 6.4 | 0.00 | 0.00 | 0.00 | 75 | 1016.0 |
| 20260903094516 | 15 | 0.0 | 4.8 | 0.00 | 0.00 | 0.00 | 75 | 1016.1 | |
| 20260903093036 | 15 | 135 | 1.6 | 6.4 | 0.00 | 0.00 | 0.00 | 74 | 1016.1 |
| 20260903091516 | 15 | 113 | 1.6 | 6.4 | 0.00 | 0.00 | 0.00 | 73 | 1016.2 |
| 20260903090016 | 15 | 0.0 | 6.4 | 0.00 | 0.00 | 0.00 | 73 | 1016.2 | |
| 20260903084516 | 15 | 0.0 | 4.8 | 0.00 | 0.00 | 0.00 | 73 | 1016.1 | |
| 20260903083016 | 15 | 113 | 1.6 | 4.8 | 0.00 | 0.00 | 0.00 | 74 | 1016.3 |
| 20260903081516 | 15 | 0.0 | 3.2 | 0.00 | 0.00 | 0.00 | 75 | 1016.4 | |
| 20260903080016 | 15 | 0.0 | 1.6 | 0.00 | 0.00 | 0.00 | 74 | 1016.5 | |
| 20260903074516 | 15 | 0.0 | 1.6 | 0.00 | 0.00 | 0.00 | 73 | 1016.6 | |
| 20260903073036 | 15 | 0.0 | 1.6 | 0.00 | 0.00 | 0.00 | 72 | 1016.4 | |
| 20260903071536 | 15 | 0.0 | 3.2 | 0.00 | 0.00 | 0.00 | 72 | 1016.7 | |
| 20260903070016 | 15 | 0.0 | 3.2 | 0.00 | 0.00 | 0.00 | 72 | 1016.5 | |
| 20260903064517 | 15 | 0.0 | 1.6 | 0.00 | 0.00 | 0.00 | 73 | 1016.6 | |
| 20260903063017 | 15 | 0.0 | 1.6 | 0.00 | 0.00 | 0.00 | 74 | 1016.8 | |
| 20260903061537 | 15 | 0.0 | 1.6 | 0.00 | 0.00 | 0.00 | 74 | 1017.0 | |
| 20260903060017 | 15 | 0.0 | 1.6 | 0.00 | 0.00 | 0.00 | 74 | 1017.0 | |
| 20260903054517 | 16 | 0.0 | 0.0 | 0.00 | 0.00 | 0.00 | 73 | 1017.1 | |
| 20260903053017 | 16 | 0.0 | 0.0 | 0.00 | 0.00 | 0.00 | 73 | 1017.0 | |
| 20260903051517 | 16 | 0.0 | 0.0 | 0.00 | 0.00 | 0.00 | 72 | 1017.2 | |
| 20260903050017 | 16 | 0.0 | 0.0 | 0.00 | 0.00 | 0.00 | 71 | 1017.2 | |
| 20260903044537 | 16 | 0.0 | 0.0 | 0.00 | 0.00 | 0.00 | 71 | 1017.2 |